FW2950 Weather Reports


Display with metric or nautical units.
time (UTC)temp
F
wind
direction
speed
MPH
gust
MPH
rain 1hr
in
rain 24hr
in
rain mn
in
humidity
%
barometer
mb
20210921061816 40 264 1.0 4.0 0.00 0.01 0.00 40 1032.2
20210921061552 39 266 1.0 4.0 0.00 0.01 0.00 40 1026.1
20210921061318 39 260 2.0 4.0 0.00 0.01 0.00 42 1032.2
20210921060817 39 278 1.0 4.0 0.00 0.01 0.00 42 1032.0
20210921060314 39 302 1.0 3.0 0.00 0.01 0.00 41 1032.0
20210921060035 39 303 1.0 3.0 0.00 0.01 0.00 41 1025.8
20210921055812 39 281 1.0 3.0 0.00 0.01 0.01 41 1031.9
20210921055315 39 277 1.0 3.0 0.00 0.01 0.01 41 1031.9
20210921054815 39 255 1.0 3.0 0.00 0.01 0.01 42 1031.8
20210921054527 38 255 1.0 3.0 0.00 0.01 0.01 42 1025.6
20210921054315 38 254 1.0 3.0 0.00 0.01 0.01 42 1031.9
20210921053814 38 292 1.0 2.0 0.00 0.01 0.01 42 1031.8
20210921053317 38 294 1.0 2.0 0.00 0.01 0.01 44 1031.7
20210921053014 38 294 0.0 2.0 0.00 0.01 0.01 44 1025.4
20210921052817 38 293 1.0 2.0 0.00 0.01 0.01 45 1031.6
20210921052317 38 294 0.0 2.0 0.00 0.01 0.01 44 1031.7
20210921051816 38 293 0.0 2.0 0.00 0.01 0.01 42 1031.6
20210921051530 38 294 0.0 2.0 0.00 0.01 0.01 43 1025.0
20210921051316 39 293 1.0 2.0 0.00 0.01 0.01 43 1031.5
20210921050817 39 294 0.0 2.0 0.00 0.01 0.01 41 1031.5
20210921050316 39 282 1.0 2.0 0.00 0.01 0.01 41 1031.2
20210921050122 38 284 1.0 2.0 0.00 0.01 0.01 40 1024.6
20210921045818 39 285 1.0 2.0 0.00 0.01 0.01 42 1031.4
20210921045320 39 289 0.0 1.0 0.00 0.01 0.01 42 1031.3
20210921044819 39 290 0.0 2.0 0.00 0.01 0.01 41 1031.2
20210921044539 39 290 0.0 2.0 0.00 0.01 0.01 40 1024.3
20210921044320 40 291 1.0 2.0 0.00 0.01 0.01 40 1031.2
20210921043822 40 297 1.0 2.0 0.00 0.01 0.01 39 1031.3
20210921043324 40 271 0.0 4.0 0.00 0.01 0.01 37 1031.2
20210921043038 40 270 0.0 4.0 0.00 0.01 0.01 36 1024.1
20210921042826 41 270 0.0 4.0 0.00 0.01 0.01 36 1031.2
20210921042324 41 269 1.0 4.0 0.00 0.01 0.01 37 1031.2
20210921041827 41 277 1.0 3.0 0.00 0.01 0.01 38 1031.2
20210921041549 41 263 1.0 3.0 0.00 0.01 0.01 35 1024.0
20210921041327 41 262 1.0 3.0 0.00 0.01 0.01 35 1031.1
20210921040829 41 262 2.0 4.0 0.00 0.01 0.01 35 1031.1
20210921040325 41 262 2.0 5.0 0.00 0.01 0.01 35 1031.1
20210921040210 41 257 2.0 5.0 0.00 0.01 0.01 35 1023.8
20210921035824 41 264 3.0 5.0 0.00 0.01 0.01 34 1031.2
20210921035320 41 251 3.0 4.0 0.00 0.01 0.01 34 1031.0
20210921034819 42 259 2.0 6.0 0.00 0.01 0.01 35 1030.9
20210921034557 41 259 2.0 6.0 0.00 0.01 0.01 35 1023.4
20210921034323 42 260 2.0 6.0 0.00 0.01 0.01 33 1030.9
20210921033822 42 260 3.0 6.0 0.00 0.01 0.01 34 1030.9
20210921033320 42 267 2.0 6.0 0.00 0.01 0.01 34 1030.9
20210921033123 41 267 2.0 6.0 0.00 0.01 0.01 33 1023.3
20210921032816 42 261 2.0 7.0 0.00 0.01 0.01 34 1030.8
20210921032333 42 263 3.0 7.0 0.00 0.01 0.01 33 1030.9
20210921031832 42 271 2.0 4.0 0.00 0.01 0.01 34 1030.9
20210921031616 42 257 2.0 6.0 0.00 0.01 0.01 33 1023.1
20210921031333 42 271 3.0 6.0 0.00 0.01 0.01 34 1030.9
20210921030830 42 263 3.0 9.0 0.00 0.01 0.01 33 1030.9
20210921030322 42 250 4.0 9.0 0.00 0.01 0.01 34 1030.8
20210921030014 42 250 2.0 7.0 0.00 0.01 0.01 33 1022.8
20210921025822 42 278 2.0 7.0 0.00 0.01 0.01 33 1030.8
20210921025319 42 263 3.0 6.0 0.00 0.01 0.01 34 1030.6
20210921024813 43 263 3.0 7.0 0.00 0.01 0.01 35 1030.5
20210921024520 42 275 2.0 7.0 0.00 0.01 0.01 34 1022.5
20210921024314 43 273 2.0 7.0 0.00 0.01 0.01 35 1030.4
20210921023813 43 263 4.0 7.0 0.00 0.01 0.01 35 1030.3
20210921023314 43 271 4.0 7.0 0.00 0.01 0.01 36 1030.1
20210921023008 42 275 3.0 7.0 0.00 0.01 0.01 36 1022.0
20210921022815 43 287 3.0 7.0 0.00 0.01 0.01 37 1030.0
20210921022317 43 269 2.0 6.0 0.00 0.01 0.01 38 1029.9
20210921021819 43 272 2.0 5.0 0.00 0.01 0.01 37 1029.8
20210921021616 43 262 3.0 7.0 0.00 0.01 0.01 38 1021.5
20210921021503 43 263 3.0 7.0 0.00 0.01 0.01 37 1021.5
20210921021320 43 269 3.0 7.0 0.00 0.01 0.01 38 1029.6
20210921020822 43 286 2.0 7.0 0.00 0.01 0.01 39 1029.6
20210921020319 43 276 2.0 9.0 0.00 0.01 0.01 39 1029.4
20210921020059 43 266 3.0 9.0 0.00 0.01 0.01 38 1020.9
20210921015818 43 217 3.0 9.0 0.00 0.01 0.01 39 1029.3
20210921015317 43 269 1.0 4.0 0.00 0.01 0.01 41 1029.1
20210921014816 43 279 2.0 4.0 0.00 0.01 0.01 43 1029.1
20210921014545 43 277 1.0 4.0 0.00 0.01 0.01 42 1020.5
20210921014315 43 261 2.0 4.0 0.00 0.01 0.01 41 1028.8
20210921013815 44 281 2.0 4.0 0.00 0.01 0.01 43 1028.7
20210921013315 44 275 2.0 4.0 0.00 0.01 0.01 42 1028.5
20210921013052 43 265 1.0 4.0 0.00 0.01 0.01 44 1020.0
20210921012817 44 256 2.0 4.0 0.00 0.01 0.01 44 1028.5
20210921012318 44 267 2.0 4.0 0.00 0.01 0.01 44 1028.5
20210921011820 44 289 2.0 3.0 0.00 0.01 0.01 42 1028.4
20210921011512 44 284 1.0 5.0 0.00 0.01 0.01 43 1019.6
20210921011321 44 284 1.0 5.0 0.00 0.01 0.01 42 1028.2
20210921010821 44 294 2.0 5.0 0.00 0.01 0.01 41 1028.0
20210921010319 45 280 2.0 3.0 0.00 0.01 0.01 42 1027.9
20210921010052 44 290 1.0 3.0 0.00 0.01 0.01 42 1019.0
20210921005821 45 296 1.0 3.0 0.00 0.01 0.01 43 1027.8
20210921005321 45 286 1.0 7.0 0.00 0.01 0.01 40 1027.7
20210921004822 46 287 2.0 7.0 0.00 0.01 0.01 39 1027.6
20210921004609 45 275 1.0 4.0 0.00 0.01 0.01 40 1018.5
20210921004324 46 273 2.0 4.0 0.00 0.01 0.01 41 1027.6
20210921003824 46 296 0.0 5.0 0.00 0.01 0.01 41 1027.6
20210921003325 47 288 1.0 5.0 0.00 0.01 0.01 38 1027.6
20210921003140 46 284 1.0 5.0 0.00 0.01 0.01 39 1018.1
20210921002826 47 267 1.0 5.0 0.00 0.01 0.01 39 1027.4
20210921002328 48 261 3.0 8.0 0.00 0.01 0.01 37 1027.2
20210921001830 49 295 1.0 8.0 0.00 0.01 0.01 37 1027.2
20210921001611 48 308 4.0 8.0 0.00 0.01 0.01 35 1017.6
20210921001312 49 320 3.0 7.0 0.00 0.01 0.01 35 1026.9
20210921000814 50 283 3.0 5.0 0.00 0.01 0.01 35 1026.9
20210921000312 50 282 2.0 7.0 0.00 0.01 0.01 35 1026.8
20210921000041 49 281 2.0 11.0 0.00 0.01 0.01 35 1017.3
20210920235814 50 286 2.0 11.0 0.00 0.01 0.01 34 1026.7
20210920235315 51 335 5.0 11.0 0.00 0.01 0.01 34 1026.6
20210920234814 51 255 2.0 8.0 0.00 0.01 0.01 34 1026.5
20210920234517 51 286 3.0 9.0 0.00 0.01 0.01 33 1016.9
20210920234315 51 281 4.0 9.0 0.00 0.01 0.01 33 1026.5
20210920233817 52 265 4.0 9.0 0.00 0.01 0.01 34 1026.4
20210920233318 52 265 3.0 7.0 0.00 0.01 0.01 34 1026.3
20210920233013 51 254 3.0 7.0 0.00 0.01 0.01 34 1016.7
20210920232820 52 274 4.0 7.0 0.00 0.01 0.01 34 1026.3
20210920232322 52 276 3.0 12.0 0.00 0.01 0.01 34 1026.4
20210920231825 52 281 6.0 12.0 0.00 0.01 0.01 34 1026.4
20210920231514 52 278 2.0 8.0 0.00 0.01 0.01 31 1016.6
20210920231326 52 290 2.0 8.0 0.00 0.01 0.01 32 1026.3
20210920230827 52 265 3.0 8.0 0.00 0.01 0.01 33 1026.2
20210920230328 53 355 2.0 8.0 0.00 0.01 0.01 32 1026.2
20210920230051 52 333 3.0 8.0 0.00 0.01 0.01 33 1016.5
20210920225830 53 294 3.0 8.0 0.00 0.01 0.01 32 1026.4
20210920225329 52 5 3.0 11.0 0.00 0.01 0.01 34 1026.4
20210920224828 52 238 5.0 11.0 0.00 0.01 0.01 34 1026.5
20210920224713 51 327 4.0 9.0 0.00 0.01 0.01 34 1016.4
20210920224329 52 271 4.0 8.0 0.00 0.01 0.01 34 1026.3
20210920223811 51 21 3.0 10.0 0.00 0.01 0.01 35 1026.2
20210920223331 51 34 3.0 10.0 0.00 0.01 0.01 36 1026.1
20210920223132 50 252 5.0 10.0 0.00 0.01 0.01 34 1016.3
20210920222813 51 320 4.0 9.0 0.00 0.01 0.01 33 1026.2
20210920222316 51 329 5.0 8.0 0.00 0.01 0.01 34 1026.3
20210920221818 51 261 3.0 10.0 0.00 0.01 0.01 35 1026.2
20210920221608 50 325 2.0 10.0 0.00 0.01 0.01 36 1016.2
20210920221317 50 264 4.0 10.0 0.00 0.01 0.01 35 1026.2
20210920220816 50 254 4.0 10.0 0.00 0.01 0.01 36 1026.3
20210920220316 48 292 5.0 11.0 0.00 0.01 0.01 37 1026.6
20210920220101 48 261 4.0 11.0 0.00 0.01 0.01 39 1016.2
20210920215819 48 241 4.0 11.0 0.00 0.01 0.01 38 1026.6
20210920215322 50 254 4.0 9.0 0.00 0.01 0.01 36 1026.6
20210920214823 50 196 3.0 11.0 0.00 0.01 0.01 35 1026.6
20210920214606 50 279 2.0 11.0 0.00 0.01 0.01 35 1016.2
20210920214323 50 241 3.0 11.0 0.00 0.01 0.01 34 1026.6
20210920213822 51 274 3.0 10.0 0.00 0.01 0.01 33 1026.6
20210920213322 51 259 6.0 10.0 0.00 0.01 0.01 36 1026.5
20210920213221 51 239 2.0 10.0 0.00 0.01 0.01 38 1016.0
20210920213015 50 254 3.0 10.0 0.00 0.01 0.01 35 1016.1
20210920212818 51 271 5.0 10.0 0.00 0.01 0.01 35 1026.6
20210920212319 51 272 3.0 13.0 0.00 0.01 0.01 35 1026.6
20210920211817 51 288 4.0 13.0 0.00 0.01 0.01 36 1026.6
20210920211621 50 326 5.0 10.0 0.00 0.01 0.01 35 1015.8
20210920211317 50 315 3.0 9.0 0.00 0.01 0.01 35 1026.5
20210920210817 50 229 5.0 10.0 0.00 0.01 0.01 36 1026.6
20210920210314 50 269 5.0 10.0 0.00 0.01 0.01 37 1026.6
20210920210045 49 331 2.0 6.0 0.00 0.01 0.01 38 1015.7
20210920205814 49 234 3.0 6.0 0.00 0.01 0.01 38 1026.6
20210920205314 49 336 3.0 10.0 0.00 0.01 0.01 38 1026.6
20210920204813 49 229 5.0 12.0 0.00 0.01 0.01 36 1026.6
20210920204559 49 286 2.0 12.0 0.00 0.01 0.01 37 1015.7
20210920204312 50 311 6.0 12.0 0.00 0.01 0.01 36 1026.7
20210920203813 50 296 3.0 12.0 0.00 0.01 0.01 36 1026.8
20210920203311 51 211 7.0 12.0 0.00 0.01 0.01 33 1026.8
20210920203035 51 259 3.0 11.0 0.00 0.01 0.01 35 1015.9
20210920202811 51 355 3.0 11.0 0.00 0.01 0.01 35 1026.8
20210920202314 50 250 4.0 11.0 0.00 0.01 0.01 40 1026.9
20210920201831 50 311 4.0 10.0 0.00 0.01 0.01 40 1026.9
20210920201533 49 328 2.0 10.0 0.00 0.01 0.01 36 1015.9
20210920200825 49 298 3.0 11.0 0.00 0.01 0.01 37 1026.9
20210920200321 49 266 4.0 11.0 0.00 0.01 0.01 42 1026.9
20210920200048 49 271 5.0 11.0 0.00 0.01 0.01 36 1015.8
20210920195814 50 266 6.0 11.0 0.00 0.01 0.01 34 1026.9
20210920195316 50 235 6.0 9.0 0.00 0.01 0.01 39 1026.9
20210920194817 49 300 3.0 9.0 0.00 0.01 0.01 38 1026.9
20210920194542 49 298 4.0 10.0 0.00 0.01 0.01 40 1015.8
20210920194317 49 24 5.0 10.0 0.00 0.01 0.01 36 1026.8
20210920193816 49 350 5.0 10.0 0.00 0.01 0.01 40 1026.9
20210920193318 49 294 4.0 9.0 0.00 0.01 0.01 42 1026.9
20210920193048 48 289 4.0 10.0 0.00 0.01 0.01 40 1015.8
20210920192819 48 279 3.0 10.0 0.00 0.01 0.01 38 1026.9
20210920192322 48 285 5.0 12.0 0.00 0.01 0.01 44 1026.9
20210920191823 48 257 5.0 12.0 0.00 0.01 0.01 41 1027.1
20210920191522 47 323 4.0 12.0 0.00 0.01 0.01 40 1015.6
20210920191322 47 290 4.0 12.0 0.00 0.01 0.01 42 1027.1
20210920190824 47 320 6.0 12.0 0.00 0.01 0.01 42 1027.0
20210920190320 48 283 5.0 11.0 0.00 0.01 0.01 39 1027.1
20210920190206 47 290 3.0 11.0 0.00 0.01 0.01 43 1015.5
20210920185819 47 275 4.0 12.0 0.00 0.01 0.01 43 1027.1
20210920185319 47 273 5.0 12.0 0.00 0.01 0.01 43 1027.2
20210920184817 47 348 5.0 11.0 0.00 0.01 0.01 43 1027.3
20210920184629 46 270 4.0 9.0 0.00 0.01 0.01 47 1015.7
20210920184317 46 239 3.0 9.0 0.00 0.01 0.01 46 1027.3
20210920183819 45 327 5.0 9.0 0.00 0.01 0.01 44 1027.4
20210920183321 46 32 2.0 9.0 0.00 0.01 0.01 48 1027.4
20210920183145 46 286 3.0 10.0 0.00 0.01 0.01 45 1015.7
20210920182823 46 16 4.0 10.0 0.00 0.01 0.01 45 1027.3
20210920182324 46 250 5.0 14.0 0.00 0.01 0.01 47 1027.2
20210920181825 45 318 5.0 14.0 0.00 0.01 0.01 44 1027.3
20210920181620 45 337 5.0 14.0 0.00 0.01 0.01 44 1015.5
20210920181327 45 277 4.0 10.0 0.00 0.01 0.01 48 1027.3
20210920180827 44 325 5.0 10.0 0.00 0.01 0.01 53 1027.3
20210920180326 43 331 3.0 11.0 0.00 0.01 0.01 51 1027.3
20210920180117 43 296 2.0 11.0 0.00 0.01 0.01 49 1015.4
20210920175828 44 298 4.0 11.0 0.00 0.01 0.01 47 1027.4
20210920175330 44 332 4.0 11.0 0.00 0.01 0.01 50 1027.3
20210920174829 44 266 3.0 11.0 0.00 0.01 0.01 51 1027.4
20210920174553 44 327 4.0 11.0 0.00 0.01 0.01 53 1015.5
20210920174314 44 319 4.0 8.0 0.00 0.01 0.01 55 1027.3
20210920173142 42 260 4.0 8.0 0.00 0.01 0.01 55 1015.4
20210920172831 42 296 3.0 9.0 0.00 0.01 0.01 55 1027.3
20210920172311 43 314 4.0 12.0 0.00 0.01 0.01 51 1027.2
20210920171813 44 328 4.0 12.0 0.00 0.01 0.01 51 1027.2
20210920171644 43 238 3.0 11.0 0.00 0.01 0.01 54 1015.2
20210920171315 43 281 4.0 11.0 0.00 0.01 0.01 55 1027.2
20210920170815 43 343 4.0 11.0 0.00 0.01 0.01 54 1027.3
20210920170315 43 322 4.0 9.0 0.00 0.01 0.01 58 1027.3
20210920170038 42 291 3.0 10.0 0.00 0.01 0.01 57 1015.0
20210920165817 42 355 3.0 10.0 0.00 0.01 0.01 57 1027.1
20210920165316 42 289 4.0 10.0 0.00 0.01 0.01 57 1027.1
20210920164817 41 308 4.0 8.0 0.00 0.01 0.01 56 1027.2
20210920164517 41 308 4.0 10.0 0.00 0.01 0.01 53 1015.1
20210920164318 41 347 4.0 10.0 0.00 0.01 0.01 57 1027.4
20210920163818 41 336 6.0 12.0 0.00 0.01 0.01 53 1027.3
20210920163312 41 300 5.0 13.0 0.00 0.01 0.01 57 1027.2
20210920163019 40 300 4.0 12.0 0.00 0.01 0.01 59 1015.0
20210920162813 41 339 4.0 12.0 0.00 0.01 0.01 58 1027.2
20210920162335 41 331 4.0 13.0 0.00 0.01 0.01 60 1027.1
20210920161810 40 312 5.0 13.0 0.00 0.01 0.01 58 1027.1
20210920161630 40 305 4.0 12.0 0.00 0.01 0.01 59 1014.6
20210920161323 40 315 3.0 10.0 0.00 0.01 0.01 64 1026.9
20210920160813 40 267 4.0 10.0 0.00 0.01 0.01 61 1026.9
20210920160321 40 279 3.0 10.0 0.00 0.01 0.01 58 1026.9
20210920160046 39 281 3.0 10.0 0.00 0.01 0.01 62 1014.5
20210920155821 39 329 4.0 10.0 0.00 0.01 0.01 62 1026.8
20210920155317 39 325 3.0 12.0 0.00 0.01 0.01 61 1026.9
20210920154818 38 323 3.0 12.0 0.00 0.01 0.01 63 1026.8
20210920154549 38 292 4.0 6.0 0.00 0.01 0.01 60 1014.2
20210920154318 38 317 3.0 6.0 0.00 0.01 0.01 62 1026.7
20210920153820 38 297 2.0 5.0 0.00 0.01 0.01 65 1026.6
20210920153316 37 309 2.0 4.0 0.00 0.01 0.01 63 1026.6
20210920153048 36 342 2.0 5.0 0.00 0.01 0.01 62 1014.0
20210920152817 37 317 2.0 5.0 0.00 0.01 0.01 63 1026.4
20210920152316 36 9 2.0 5.0 0.00 0.01 0.01 63 1026.5
20210920151813 36 284 2.0 7.0 0.00 0.01 0.01 64 1026.3
20210920151520 35 298 1.0 7.0 0.00 0.01 0.01 63 1013.9
20210920151333 35 34 2.0 7.0 0.00 0.01 0.01 62 1026.4
20210920150830 35 292 2.0 7.0 0.00 0.01 0.01 62 1026.3
20210920150327 35 254 3.0 7.0 0.00 0.01 0.01 62 1026.1
20210920150111 35 270 1.0 3.0 0.00 0.01 0.01 63 1013.6
20210920145823 36 269 2.0 4.0 0.00 0.01 0.01 64 1026.1
20210920145323 35 257 2.0 4.0 0.00 0.01 0.01 63 1026.1
20210920144826 35 294 1.0 5.0 0.00 0.01 0.01 66 1025.9
20210920144657 34 266 1.0 5.0 0.00 0.01 0.01 65 1013.3
20210920144328 35 330 2.0 5.0 0.00 0.01 0.01 64 1025.9
20210920143810 35 284 2.0 4.0 0.00 0.01 0.01 63 1025.9
20210920143311 35 293 1.0 3.0 0.00 0.01 0.01 63 1025.7
20210920143150 34 279 1.0 3.0 0.00 0.01 0.01 64 1013.1
20210920142816 35 302 1.0 3.0 0.00 0.01 0.01 65 1025.7
20210920142319 34 331 1.0 3.0 0.00 0.01 0.01 65 1025.6
20210920141823 34 323 1.0 3.0 0.00 0.01 0.01 65 1025.4
20210920141608 34 9 1.0 3.0 0.00 0.01 0.01 66 1012.9
20210920141326 34 347 1.0 3.0 0.00 0.01 0.01 65 1025.5
20210920140827 34 11 1.0 3.0 0.00 0.01 0.01 65 1025.4
20210920140325 34 298 1.0 2.0 0.00 0.01 0.01 66 1025.3
20210920140023 33 297 0.0 2.0 0.00 0.01 0.01 66 1012.7
20210920135827 34 297 1.0 3.0 0.00 0.01 0.01 66 1025.2
20210920135329 34 288 1.0 4.0 0.00 0.01 0.01 66 1025.2
20210920134810 33 306 1.0 2.0 0.00 0.01 0.01 66 1025.3
20210920134550 33 306 0.0 2.0 0.00 0.01 0.01 67 1012.8
20210920134312 33 306 1.0 2.0 0.00 0.01 0.01 67 1025.2
20210920133829 33 292 1.0 3.0 0.00 0.01 0.01 66 1025.1
20210920133326 33 292 2.0 3.0 0.00 0.01 0.01 66 1025.1
20210920133029 33 288 0.0 2.0 0.00 0.01 0.01 67 1012.5
20210920132826 33 288 0.0 2.0 0.00 0.01 0.01 67 1025.0
20210920132328 33 252 0.0 2.0 0.00 0.01 0.01 67 1024.8
20210920131810 33 252 1.0 3.0 0.00 0.01 0.01 67 1024.7
20210920131607 33 254 1.0 7.0 0.00 0.01 0.01 67 1012.2
20210920131312 33 245 2.0 7.0 0.00 0.01 0.01 66 1024.7
20210920130830 33 277 3.0 7.0 0.00 0.01 0.01 66 1024.8
20210920130324 33 254 2.0 4.0 0.00 0.01 0.01 67 1024.6
20210920130115 33 239 2.0 4.0 0.00 0.01 0.01 67 1011.9
20210920125822 33 259 2.0 4.0 0.00 0.01 0.01 67 1024.5
20210920125322 33 295 1.0 2.0 0.00 0.01 0.01 67 1024.5
20210920124821 33 298 1.0 2.0 0.00 0.01 0.01 67 1024.5
20210920124629 33 310 0.0 2.0 0.00 0.01 0.01 68 1011.7
20210920124319 33 310 1.0 2.0 0.00 0.01 0.01 68 1024.4
20210920123820 33 313 1.0 2.0 0.00 0.01 0.01 68 1024.3
20210920123321 33 329 0.0 1.0 0.00 0.01 0.01 68 1024.3
20210920123119 33 329 0.0 2.0 0.00 0.01 0.01 67 1011.6
20210920122820 33 329 0.0 2.0 0.00 0.01 0.01 68 1024.3
20210920122319 33 329 1.0 2.0 0.00 0.01 0.01 68 1024.4
20210920121823 33 331 0.0 2.0 0.00 0.01 0.01 68 1024.2
20210920121612 33 331 0.0 2.0 0.00 0.01 0.01 67 1011.6
20210920121326 33 331 1.0 2.0 0.00 0.01 0.01 67 1024.4
20210920120821 33 333 0.0 3.0 0.00 0.01 0.01 67 1024.3
20210920120318 33 333 1.0 3.0 0.00 0.01 0.01 67 1024.0
20210920120024 33 267 0.0 2.0 0.00 0.01 0.01 68 1011.3
20210920115820 33 269 0.0 2.0 0.00 0.01 0.01 68 1024.2
20210920115319 33 268 0.0 3.0 0.00 0.01 0.01 68 1024.2
20210920114818 33 267 1.0 3.0 0.00 0.01 0.01 67 1024.2
20210920114551 33 271 1.0 6.0 0.00 0.01 0.01 67 1011.2
20210920114320 33 271 1.0 6.0 0.00 0.01 0.01 67 1024.0
20210920113823 33 269 2.0 6.0 0.00 0.01 0.01 67 1024.2
20210920113312 33 251 2.0 4.0 0.00 0.01 0.01 67 1023.8
20210920113056 33 274 1.0 3.0 0.00 0.01 0.01 68 1011.1
20210920112814 33 254 2.0 3.0 0.00 0.01 0.01 68 1024.2
20210920112317 33 275 2.0 4.0 0.00 0.01 0.01 68 1024.0
20210920111814 33 282 0.0 5.0 0.00 0.01 0.01 68 1024.1
20210920111515 32 282 1.0 5.0 0.00 0.01 0.01 68 1011.1
20210920111314 33 297 1.0 4.0 0.00 0.01 0.01 68 1024.3
20210920110834 33 317 2.0 4.0 0.00 0.01 0.01 68 1024.1
20210920110326 33 284 1.0 4.0 0.00 0.01 0.01 68 1023.8
20210920110131 33 9 1.0 4.0 0.00 0.01 0.01 67 1010.6
20210920105828 33 319 2.0 4.0 0.00 0.01 0.01 67 1023.8
20210920105329 34 297 2.0 9.0 0.00 0.01 0.01 66 1023.8
20210920104812 34 295 2.0 9.0 0.00 0.01 0.01 66 1023.5
20210920104632 33 285 3.0 9.0 0.00 0.01 0.01 65 1010.4
20210920104311 34 271 3.0 8.0 0.00 0.01 0.01 66 1023.6
20210920103811 34 269 2.0 8.0 0.00 0.01 0.01 66 1023.4
20210920103311 34 273 2.0 5.0 0.00 0.01 0.01 67 1023.6
20210920103050 33 284 0.0 4.0 0.00 0.01 0.01 67 1010.1
20210920102826 34 285 2.0 4.0 0.00 0.01 0.01 67 1023.3
20210920102328 33 261 2.0 5.0 0.00 0.01 0.01 68 1023.3
20210920101830 33 265 2.0 5.0 0.00 0.01 0.01 70 1023.5
20210920101550 33 265 2.0 5.0 0.00 0.01 0.01 70 1010.0
20210920101311 33 254 3.0 5.0 0.00 0.01 0.01 70 1023.3
20210920100811 33 257 3.0 6.0 0.00 0.01 0.01 70 1023.0
20210920100330 33 254 2.0 8.0 0.00 0.01 0.01 70 1022.8
20210920100010 33 259 2.0 9.0 0.00 0.01 0.01 70 1009.4
20210920095829 34 286 4.0 9.0 0.00 0.01 0.01 69 1022.6
20210920095329 34 267 3.0 9.0 0.00 0.01 0.01 69 1022.7
20210920094829 34 268 4.0 8.0 0.00 0.01 0.01 72 1022.6
20210920094514 33 267 4.0 8.0 0.00 0.01 0.01 75 1009.5
20210920094332 33 255 3.0 8.0 0.00 0.01 0.01 76 1023.0
20210920093827 33 254 2.0 7.0 0.00 0.01 0.01 76 1022.6
20210920093324 33 254 3.0 5.0 0.00 0.01 0.01 77 1023.1
20210920093004 32 294 1.0 5.0 0.00 0.01 0.01 77 1009.4
20210920092824 33 317 2.0 5.0 0.00 0.01 0.01 77 1023.0
20210920092323 33 63 0.0 2.0 0.00 0.01 0.01 75 1023.0
20210920091816 33 49 0.0 2.0 0.00 0.01 0.01 74 1022.7
20210920091703 32 49 1.0 2.0 0.00 0.01 0.01 73 1009.2
20210920091317 33 49 1.0 2.0 0.00 0.01 0.01 72 1023.0
20210920090820 33 111 1.0 2.0 0.00 0.01 0.01 71 1022.8
20210920090322 33 111 0.0 2.0 0.00 0.01 0.01 71 1023.0
20210920090055 32 111 0.0 2.0 0.00 0.01 0.01 70 1009.4
20210920085819 33 80 1.0 2.0 0.00 0.01 0.01 70 1023.1
20210920085321 33 63 0.0 2.0 0.00 0.01 0.01 69 1022.9
20210920084824 33 44 0.0 2.0 0.00 0.01 0.01 69 1022.9
20210920084616 33 35 0.0 2.0 0.00 0.01 0.01 69 1009.1
20210920084325 33 32 1.0 2.0 0.00 0.01 0.01 69 1023.0
20210920083827 34 42 0.0 1.0 0.00 0.01 0.01 69 1023.0
20210920083330 34 28 1.0 1.0 0.00 0.01 0.01 68 1022.8
20210920083023 34 28 0.0 2.0 0.00 0.01 0.01 68 1008.7
20210920082812 35 27 1.0 2.0 0.00 0.01 0.01 68 1022.8
20210920082314 35 27 1.0 3.0 0.00 0.01 0.01 68 1023.0
20210920081814 35 302 1.0 3.0 0.00 0.01 0.01 68 1022.9
20210920081513 35 296 1.0 5.0 0.01 0.01 0.01 68 1008.8
20210920081329 36 298 1.0 5.0 0.01 0.01 0.01 68 1023.0
20210920080811 36 331 3.0 5.0 0.01 0.01 0.01 69 1023.2
20210920080320 37 331 1.0 4.0 0.01 0.01 0.01 69 1023.1
20210920080059 36 329 2.0 5.0 0.01 0.01 0.01 69 1008.6
20210920075820 37 342 1.0 5.0 0.01 0.01 0.01 69 1023.0
20210920075322 37 328 2.0 8.0 0.01 0.01 0.01 69 1022.8
20210920074823 37 277 3.0 8.0 0.01 0.01 0.01 68 1022.7
20210920074540 37 360 3.0 13.0 0.01 0.01 0.01 68 1008.1
20210920074325 37 360 3.0 13.0 0.01 0.01 0.01 68 1022.6
20210920073827 38 360 5.0 13.0 0.01 0.01 0.01 69 1022.7
20210920073328 38 284 5.0 13.0 0.01 0.01 0.01 69 1022.4
20210920073022 38 300 2.0 13.0 0.01 0.01 0.01 69 1007.5
20210920072810 38 299 4.0 13.0 0.01 0.01 0.01 69 1022.0
20210920072322 39 284 6.0 14.0 0.01 0.01 0.01 68 1022.0
20210920071824 40 261 8.0 15.0 0.01 0.01 0.01 67 1022.1
20210920071607 39 271 5.0 18.0 0.00 0.00 0.00 66 1007.2
20210920071325 40 288 9.0 19.0 0.00 0.00 0.00 65 1021.8
20210920070826 41 273 10.0 19.0 0.00 0.00 0.00 63 1021.6
20210920070322 42 329 9.0 14.0 0.00 0.00 0.00 61 1021.7
20210920070132 42 245 6.0 14.0 0.00 0.00 0.00 60 1006.5
20210920065813 43 258 7.0 14.0 0.00 0.00 0.00 59 1021.1
20210920065312 44 254 6.0 12.0 0.00 0.00 0.00 59 1020.9
20210920064812 45 257 7.0 13.0 0.00 0.00 0.00 59 1020.8
20210920064623 45 253 8.0 16.0 0.00 0.00 0.00 59 1005.7
20210920064310 45 268 8.0 16.0 0.00 0.00 0.00 58 1020.6
20210920063810 46 331 4.0 11.0 0.00 0.00 0.00 60 1020.3
20210920063314 46 281 7.0 11.0 0.00 0.00 0.00 61 1020.3
20210920063017 46 265 4.0 12.0 0.00 0.00 0.00 61 1005.3
20210920062815 47 230 5.0 12.0 0.00 0.00 0.00 60 1020.2
20210920062317 47 302 7.0 14.0 0.00 0.00 0.00 60 1020.1